Alliance, NE

12:18 PM MDT on August 24, 2016 (GMT -0600)
Alliance Municipal

Weather History for KAIA - July, 2013

Change the Weather History Date:

Saturday, July 6, 2013

  Actual Average Record
Temperature  
Mean Temperature 77 °F 71 °F  
Max Temperature 94 °F 87 °F 106 °F (1989)
Min Temperature 59 °F 55 °F 36 °F (1904)
Degree Days  
Heating Degree Days 0 0  
Month to date heating degree days 0 5  
Since 1 June heating degree days 62 98  
Since 1 July heating degree days 0 5  
Cooling Degree Days 12 6  
Month to date cooling degree days 36 36  
Year to date cooling degree days 182 134  
Since 1 June cooling degree days 160 124  
Growing Degree Days 26 (Base 50)    
Moisture  
Dew Point 55 °F    
Average Humidity 54    
Maximum Humidity 84    
Minimum Humidity 23    
Precipitation  
Precipitation 0.00 in 0.06 in 1.23 in (1978)
Month to date precipitation T 0.45  
Year to date precipitation 6.72 8.84  
Sea Level Pressure  
Sea Level Pressure 29.73 in    
Wind  
Wind Speed 9 mph (North)    
Max Wind Speed 24 mph    
Max Gust Speed 30 mph    
Visibility 10 miles    
Events      
T = Trace of Precipitation, MM = Missing Value Source: NWS Daily Summary

Daily Weather History Graph

Daily Weather History Graph

Search for Another Location

Airport or City:

Trip Planner

Search our weather history database for the weather conditions in past years. The results will help you decide how hot, cold, wet, or windy it might be!

Date:

Astronomy

Jul. 06, 2013 Rise Set
Actual Time 5:22 AM MDT 8:29 PM MDT
Civil Twilight 4:48 AM MDT 9:03 PM MDT
Nautical Twilight 4:04 AM MDT 9:46 PM MDT
Astronomical Twilight 3:12 AM MDT 10:38 PM MDT
Moon 4:10 AM MDT (7/6) 7:11 PM MDT (7/6)
Length of Visible Light 16h 15m
Length of Day
15h 07m
Waning Crescent, 2% of the Moon is Illuminated
Jul 6
Waning Crescent
Jul 8
New
Jul 15
First Quarter
Jul 22
Full
Jul 29
Last Quarter

Hourly Weather History & Observations

Time (MDT) Temp. Heat Index Dew Point Humidity Pressure Visibility Wind Dir Wind Speed Gust Speed Precip Events Conditions
12:53 AM 64.0 °F - 57.0 °F 78% 29.68 in 10.0 mi North 6.9 mph - N/A   Clear
1:53 AM 64.9 °F - 57.0 °F 75% 29.68 in 10.0 mi NNE 3.5 mph - N/A   Clear
2:53 AM 60.1 °F - 55.9 °F 86% 29.69 in 10.0 mi West 6.9 mph - N/A   Clear
3:53 AM 63.0 °F - 57.0 °F 81% 29.70 in 10.0 mi West 12.7 mph - N/A   Clear
4:53 AM 63.0 °F - 57.0 °F 81% 29.67 in 10.0 mi WNW 6.9 mph - N/A   Clear
5:53 AM 61.0 °F - 55.9 °F 83% 29.69 in 10.0 mi Calm Calm - N/A   Clear
6:53 AM 68.0 °F - 57.9 °F 70% 29.69 in 10.0 mi North 4.6 mph - N/A   Clear
7:53 AM 75.9 °F - 57.9 °F 54% 29.71 in 10.0 mi WSW 5.8 mph - N/A   Clear
8:53 AM 80.1 °F 80.4 °F 57.0 °F 45% 29.72 in 10.0 mi NW 8.1 mph - N/A   Clear
9:53 AM 84.9 °F 83.6 °F 55.0 °F 36% 29.72 in 10.0 mi NNW 13.8 mph - N/A   Clear
10:53 AM 87.1 °F 85.1 °F 54.0 °F 32% 29.73 in 10.0 mi NNW 9.2 mph 19.6 mph N/A   Clear
11:53 AM 90.0 °F 87.5 °F 53.1 °F 28% 29.73 in 10.0 mi North 12.7 mph - N/A   Clear
12:53 PM 90.0 °F - 52.0 °F 27% 29.74 in 10.0 mi NNW 9.2 mph - N/A   Clear
1:53 PM 89.1 °F - 51.1 °F 27% 29.75 in 10.0 mi Variable 4.6 mph 16.1 mph N/A   Clear
2:53 PM 91.0 °F - 50.0 °F 24% 29.75 in 10.0 mi Variable 6.9 mph - N/A   Clear
3:53 PM 93.0 °F - 50.0 °F 23% 29.74 in 10.0 mi North 8.1 mph 18.4 mph N/A   Clear
4:53 PM 91.0 °F - 50.0 °F 24% 29.74 in 10.0 mi NNE 9.2 mph - N/A   Mostly Cloudy
5:53 PM 91.0 °F - 50.0 °F 24% 29.73 in 10.0 mi NE 12.7 mph - N/A   Clear
6:53 PM 89.1 °F - 50.0 °F 26% 29.73 in 10.0 mi ENE 9.2 mph - N/A   Partly Cloudy
7:53 PM 82.9 °F 82.0 °F 55.0 °F 38% 29.73 in 10.0 mi NE 8.1 mph - N/A   Clear
8:53 PM 73.9 °F - 57.0 °F 55% 29.76 in 10.0 mi NNE 9.2 mph - N/A   Clear
9:53 PM 72.0 °F - 57.9 °F 61% 29.78 in 10.0 mi NNE 6.9 mph - N/A   Clear
10:53 PM 73.9 °F - 57.9 °F 57% 29.81 in 10.0 mi North 16.1 mph 25.3 mph N/A   Clear
11:53 PM 66.9 °F - 59.0 °F 76% 29.83 in 10.0 mi NNE 21.9 mph 28.8 mph N/A   Clear